STARLINK-2529 (48457 NORAD) Tracking and Keplerian Element Data

This shows tracking and keplerian element data for the satellite.

Feedback or suggestion? Click here.




ElementValue
Catalog48457
NameSTARLINK-2529
Epoch Orbit1393
Epoch Day209.14014223
Epoch Year2021
RAAN182.3599
Inclination53.0313
Eccentricity0.0004585
Argument of Perigee202.7543
Mean Anonmoly247.9397
Mean Motion16.49827213
Decay Rate0.55410599
L11 48457U 21040AF 21209.14014223 .55410599 12576-4 64405-3 0 9991
L22 48457 53.0313 182.3599 0004585 202.7543 247.9397 16.49827213 13937

Live tracking and technical data element details for STARLINK-2529 (NORAD 48457). STARLINK-2529 can be tracked NOW for your location showing map with azimuth and elevation plus other details from your city location.

Track the satellite on the map from your city or location and see movement details for azimuth, elevation, latitude, longitude, range, height, and movement on the map or in text.







IsCatalogInMostPopularTable: catalog: 48457, numindb: 24
Update: records affected: 1



GetName: 48457 STARLINK-2529

Hit Count: updated at: Sat, 31 Jul 2021 15:32:40 GMT